Location: Peebles
(55.6412°N, 3.1714°W)
Time: 08:39:56
(UTC+00:00)

COSMOS 2251 DEB - Pass Details

Date: 05 December 2022
Orbit: 738 x 761 km, 74.0° (Epoch: 29 January)

Event Time Altitude Azimuth Distance (km) Brightness Sun altitude
Exits shadow 05:23:30 13° 353° (N) 2,077 ? -23.8°
Drops below altitude 10° 05:24:44 10° 7° (N) 2,261 ? -23.7°
Sets 05:28:20 0° 33° (NNE) 3,190 ? -23.2°
